Location: Bocianicha
(51.5066°N, 19.2563°E)
Time: 14:21:10
(UTC+00:00)

ALOS - Pass Details

Date: 15 June 2025
Orbit: 664 x 666 km, 98.1° (Epoch: 17 July)

Event Time Altitude Azimuth Distance (km) Brightness Sun altitude
Rises 00:21:23 0° 26° (NNE) 3,017 7.7 -12.2°
Reaches altitude 10° 00:24:14 10° 45° (NE) 2,097 6.0 -12.0°
Maximum altitude 00:27:29 19° 90° (E) 1,581 4.4 -11.8°
Drops below altitude 10° 00:30:42 10° 135° (SE) 2,085 4.6 -11.6°
Enters shadow 00:33:14 - 152° (SSE) 2,895 5.1 -11.4°
